Overview Statistics Trail Chart Weather Telemetry Raw packets
 

This is the latest recevied weather packets stored in our database for station/object IW1QLH-13. If no packets are shown the sender has not sent any weather packets the latest 10 day(s).

<< 22 23 24 25 26 27 28 >>
Time Temp. Humidity Pressure Rain* Wind** Luminosity Snow
1788273633 30° C 11% - - - 715 W/m² -
1788273015 30° C 11% - - - 729 W/m² -
1788272391 30° C 11% - - - 772 W/m² -
1788271779 30° C 11% - - - 800 W/m² -
1788271167 30° C 11% - - - 829 W/m² -
1788270555 30° C 11% - - - 843 W/m² -
1788269943 30° C 11% - - - 858 W/m² -
1788269332 28.89° C 11% - - - 872 W/m² -
1788268720 31.67° C 10% - - - 886 W/m² -
1788268108 30.56° C 11% - - - 900 W/m² -
1788267496 30.56° C 11% - - - 929 W/m² -
1788266884 30° C 11% - - - 943 W/m² -
1788266272 31.67° C 11% - - - 800 W/m² -
1788265661 30° C 11% - - - 529 W/m² -
1788265049 31.67° C 11% - - - 429 W/m² -
1788264434 28.89° C 11% - - - 429 W/m² -
1788263820 28.89° C 11% - - - 643 W/m² -
1788263209 28.89° C 11% - - - 514 W/m² -
1788262596 30° C 11% - - - 643 W/m² -
1788261982 31.67° C 11% - - - 1129 W/m² -
1788261370 32.78° C 10% - - - 343 W/m² -
1788260759 32.78° C 11% - - - 929 W/m² -
1788260146 32.78° C 11% - - - 886 W/m² -
1788259550 32.78° C 10% - - - 900 W/m² -
1788258920 31.67° C 11% - - - 900 W/m² -

* Rain since midnight (hover to see other rain measurements)
** Current wind speed in m/s (hover to see current wind gust speed)